OBJECT E, 63295

Orbit data source: Space-Track

You're viewing an Uncataloged Satellite

Recently launched and/or uncataloged satellites may have evolving metadata. Metadata may include but not limited to: Owner, Maufacturer, Bus, Motor, and Mission.

OBJECT E, 63295 is a satellite owned by Yunyao yuhang (CN) in SSO that was launched on Mon, 17 Mar 2025 UTC via a GUSHENXING 1 launch vehicle from the Jiuquan Satellite Launch Center, China (JSC). Unknown objects in Earth's orbit typically refer to objects detected orbiting the Earth but have not yet been identified or cataloged. These objects could be anything from previously untracked satellites, spent rocket stages, debris from satellite collisions, or even natural meteoroids temporarily captured by Earth's gravity.

Loading next visibility...
Identifier
63295, 2025-055E
Orbit
SSO
Last TLE update
1 day ago
Origin
Flag of CNYYAO (CN / PRC)
Manufacturer
Changguang WJ
Mission
Operational spacecraft
Bus & Motor
YY-1, Unknown motor
Mass
~50 kg wet, ~50 kg dry
Launch date (UTC)
2025-03-17 (1 month ago)
Launch vehicle
GUSHENXING 1
Launch site
Jiuquan Satellite Launch Center, China (JSC)
Object type
Unknown
Shape & HBR
Unknown
Radar Cross Section
Medium (>0.1 m² and <1 m²)

Expand to show TLE details & history

TLE from 1 day ago
0 OBJECT E
1 63295U 25055E   25119.18630915  .00014260  00000-0  85985-3 0  9994
2 63295  97.6042 254.2698 0013876 143.0690 217.1497 15.10785944  6437
Epoch: 2025-04-29T04:28Z
Definitive object data (Epoch: 2025-04-29T04:28:17.11Z)
Latitude
-0.0001°
Longitude
-30.19107°
Altitude
544.525 km
Speed
7.586 km/s
True Right ascension
16h 57m 04s
True Declination
0° 00' 00"
Sunlit
Object was in full shadow at TLE epoch
Visualization TLE readout
Latitude
57.11222°
Longitude
-40.77895°
Altitude
541.779 km
Speed
7.598 km/s
Apparent Right ascension
09h 48m 59s
Apparent Declination
32° 04' 27"
Sunlit
Object is in daylight
Visualization observer readout
Local Sidereal Time
18:29:46
Azimuth
319.512° NNW
Elevation
-4.514°
Doppler factor
1
Orbital elements
Apogee altitude
540.375 km
Perigee altitude
521.202 km
Semi-major axis
6,908.925 km
Eccentricity
0.0013876
Inclination
97.6042°
RAAN
254.2698°
Arg. of periapsis
143.069°
True anomaly
217.05381°
Mean anomaly
217.1497°
Eccentric anomaly
217.10174°
Mean motion
3.77944 °/min
BSTAR
0.00085985
Orbital period
95.25 mins
Loading maneuver chart data...
Loading SW <> Apogee altitude chart data...
Loading historical data...
Loading historical data...
Loading historical data...
Loading historical data...
Loading historical data...
Loading historical data...
Loading historical data...

OBJECT E Visibility forecast

Observer location: undefined°, undefined°

Span
Click to sort rows by Start time (UTC) header in descending order
Start Az.
Max El. time (UTC)
Max El. Az.
Max El.
End time (UTC)
End Az.
5 mins2025-04-30 22:22:40.848Z338.218° N2025-04-30 22:24:40.848Z281.522° WNW29.812°2025-04-30 22:27:40.848Z223.31° SW
6 mins2025-05-01 09:03:40.848Z171.598° S2025-05-01 09:06:40.848Z326.016° NNW42.558°2025-05-01 09:09:40.848Z345.408° N
|